This demonstration page uses our WeatherBlox Daily Observations layout. Learn more.

Left ArrowRight Arrow

41.12389, -100.76542

Hourly Observations for November 21, 2015

Temp ( °F °C ) Dew Point ( °F °C ) Humidity (%) Winds ( mph kmh ) Pressure ( in mb ) Visibility ( mi km ) Precip ( " mm )
12:49 am 00:49 Cloudy 27 -3 19 -7 74 74 NW 7 11 30.53 1034 10 16 0.00 0.00
1:15 am 01:15 Cloudy 26 -3.3 19 -7.2 75 75 NW 6 9 30.53 1034 10 16 0.00 0.00
1:53 am 01:53 Cloudy with Light Snow 26 -3.3 21 -6.1 81 81 NW 8 13 30.49 1033 5 8 0.00 0.03
2:53 am 02:53 Cloudy 23 -5 16 -8.9 74 74 N 16 26 30.52 1034 10 16 0.01 0.25
3:53 am 03:53 Cloudy 24 -4.4 14 -10 65 65 NNW 9 15 30.53 1034 10 16 0.00 0.00
4:53 am 04:53 Cloudy 23 -5 14 -10 68 68 NNW 9 15 30.53 1034 10 16 0.00 0.00
5:53 am 05:53 Clear 17 -8.3 11 -11.7 77 77 NW 10 17 30.53 1034 10 16 0.00 0.00
6:53 am 06:53 Clear 17 -8.3 11 -11.7 77 77 NNW 7 11 30.53 1034 10 16 0.00 0.00
7:53 am 07:53 Sunny 14 -10 9 -12.8 80 80 NW 6 9 30.54 1034 10 16 0.00 0.00
8:53 am 08:53 Sunny 20 -6.7 13 -10.6 74 74 W 7 11 30.52 1034 10 16 0.00 0.00
9:53 am 09:53 Sunny 24 -4.4 13 -10.6 62 62 W 9 15 30.50 1033 10 16 0.00 0.00
10:53 am 10:53 Sunny 28 -2.2 13 -10.6 53 53 WSW 12 19 30.48 1032 10 16 0.00 0.00
11:53 am 11:53 Sunny 31 -0.6 14 -10 49 49 W 14 22 30.43 1030 10 16 0.00 0.00
12:53 pm 12:53 Sunny 33 0.6 12 -11.1 42 42 WSW 14 22 30.36 1028 10 16 0.00 0.00
1:53 pm 13:53 Sunny 36 2.2 13 -10.6 39 39 WSW 13 20 30.31 1027 10 16 0.00 0.00
2:53 pm 14:53 Sunny 35 1.7 14 -10 42 42 W 14 22 30.28 1026 10 16 0.00 0.00
3:53 pm 15:53 Sunny 35 1.7 15 -9.4 44 44 WSW 16 26 30.25 1025 10 16 0.00 0.00
4:53 pm 16:53 Sunny 34 1.1 16 -8.9 48 48 SW 8 13 30.23 1024 10 16 0.00 0.00
6:53 pm 18:53 Clear 28 -2.2 16 -8.9 60 60 SW 6 9 30.21 1023 10 16 0.00 0.00
7:53 pm 19:53 Clear 29 -1.7 17 -8.3 61 61 Calm 30.22 1023 10 16 0.00 0.00
8:53 pm 20:53 Clear 30 -1.1 18 -7.8 61 61 Calm 30.19 1023 10 16 0.00 0.00
10:53 pm 22:53 Cloudy 23 -5 18 -7.8 81 81 NW 5 7 30.18 1022 10 16 0.00 0.00
11:53 pm 23:53 Clear 19 -7.2 16 -8.9 88 88 NW 5 7 30.17 1022 10 16 0.00 0.00

Powered by AerisWeather